H-2A R/B - Orbit

View from above orbital plane
View from above orbital plane
View from above satellite
View from above satellite

Ground track
Ground track

The orbit data is extracted from the following two-line orbital elements,

1 32501U 08007B   13139.52368072  .00006169  00000-0  21141-2 0  3881
2 32501 028.4167 290.2511 7109599 323.0605 026.1948 02.49161367 46144
Epoch (UTC): 19 May 2013 12:34:06
Eccentricity: 0.7109599
inclination: 28.4167°
perigee height: 265 km
apogee height: 32945 km
right ascension of ascending node: 290.2511°
argument of perigee: 323.0605°
revolutions per day: 2.49161367
mean anomaly at epoch: 26.1948°
orbit number at epoch: 4614

The dashed part of the orbit path shows where the satellite is in the earth's shadow,  

Developed and maintained by Chris Peat, Heavens-Above GmbH. Please read the updated FAQ before sending e-mail. Imprint. DLR